This is the latest recevied weather packets stored in our database for station/object SQ9MHX-13. If no packets are shown the sender has not sent any weather packets the latest 10 day(s).
| Time | Temp. | Humidity | Pressure | Rain* | Wind** | Luminosity | Snow |
|---|---|---|---|---|---|---|---|
| 1777883006 | 22.22° C | 31% | 953.5 hPa | - | 0 m/s | - | - |
| 1777882707 | 21.11° C | 30% | 953.8 hPa | - | 0 m/s | - | - |
| 1777882109 | 21.11° C | 32% | 954.3 hPa | - | 0 m/s | - | - |
| 1777881211 | 20° C | 33% | 954.9 hPa | - | 0 m/s | - | - |
| 1777880613 | 20° C | 33% | 955.3 hPa | - | 0 m/s | - | - |
| 1777880314 | 20° C | 34% | 955.2 hPa | - | 0 m/s | - | - |
| 1777879417 | 20° C | 34% | 955.8 hPa | - | 0 m/s | - | - |
| 1777878520 | 20° C | 35% | 956.5 hPa | - | 0 m/s | - | - |
| 1777878221 | 20° C | 39% | 957.4 hPa | - | 0 m/s | - | - |
| 1777877324 | 17.78° C | 47% | 959.5 hPa | - | 0 m/s | - | - |
| 1777876427 | 17.22° C | 49% | 960.2 hPa | - | 0 m/s | - | - |
| 1777876128 | 17.22° C | 49% | 961.2 hPa | - | 0 m/s | - | - |
| 1777875837 | 16.11° C | 51% | 961.5 hPa | - | 0 m/s | - | - |
| 1777875531 | 16.11° C | 47% | 960.9 hPa | - | 0 m/s | - | - |
| 1777874933 | 16.11° C | 45% | 960.6 hPa | - | 0 m/s | - | - |
| 1777874634 | 16.11° C | 51% | 961.1 hPa | - | 0 m/s | - | - |
| 1777874335 | 16.11° C | 52% | 961.2 hPa | - | 0 m/s | - | - |
| 1777874036 | 16.11° C | 52% | 962.1 hPa | - | 0 m/s | - | - |
| 1777873737 | 17.22° C | 55% | 962.5 hPa | - | 0 m/s | - | - |
| 1777873439 | 15° C | 58% | 962.7 hPa | - | 0 m/s | - | - |
| 1777873140 | 15° C | 59% | 963.4 hPa | - | 0 m/s | - | - |
| 1777872841 | 15° C | 59% | 964 hPa | - | 0 m/s | - | - |
| 1777872542 | 15° C | 60% | 964.4 hPa | - | 0 m/s | - | - |
| 1777872244 | 15° C | 59% | 965 hPa | - | 0 m/s | - | - |
| 1777871945 | 13.89° C | 62% | 965.4 hPa | - | 0 m/s | - | - |
* Rain since midnight (hover to see other rain measurements)
** Current wind speed in m/s (hover to see current wind gust speed)